Regional Weather Roundup
Issued by NWS Kansas City/Pleasant Hill, MO

Home | Current Version | Previous Version | Graphics & Text | Print | Product List | Glossary Off
Versions: 1 2 3 4 5 6 7 8 9 10 11 12 13 14 15 16 17 18 19 20 21 22 23 24 25 26 27

000
ASUS43 KEAX 261010
RWREAX

WEATHER ROUNDUP FOR EASTERN KANSAS AND NORTHWEST MISSOURI
NATIONAL WEATHER SERVICE KANSAS CITY/PLEASANT HILL MO
500 AM CDT SUN MAR 26 2017

KSZ040-057-103>105-MOZ028-029-037-043-261100-
...KANSAS CITY METROPOLITAN AREA...

CITY           SKY/WX    TMP DP  RH WIND       PRES   REMARKS
K.C. INTL      CLOUDY    42  41  96 W8        29.88R
K.C. DOWNTOWN  CLOUDY    45  42  89 W6        29.89R
LEES SUMMIT    CLOUDY    45  43  93 W9        29.88R
OLATHE - IXD   CLOUDY    43  41  93 W8        29.90R
OLATHE - OJC   CLOUDY    42  42 100 W9        29.89R
LAWRENCE       CLOUDY    44  42  93 W5        29.89F

$$

MOZ001>008-011>017-020>025-030>033-038>040-044>046-053-054-261100-
...NORTHERN AND CENTRAL MISSOURI...

CITY           SKY/WX    TMP DP  RH WIND       PRES   REMARKS
ST. JOSEPH     CLOUDY    43  42  97 W6        29.89R
MOSBY          CLOUDY    43  43 100 NW6       29.87S FOG
WARRENSBURG    CLOUDY    45  43  93 W5        29.87S
WHITEMAN AFB   CLOUDY    46  46 100 NW6       29.86S
CLINTON        LGT RAIN  46  46 100 W8        29.89R
SEDALIA        CLOUDY    49  32  52 W9        29.87R
WARSAW         NOT AVBL
CHILLICOTHE      N/A     44  42  93 VRB5      29.86R
KIRKSVILLE     CLOUDY    46  45  96 NW6       29.80S

$$

MOZ041-047>049-056>058-063>065-088>090-097-261100-
...EASTERN AND SOUTHERN MISSOURI...

CITY           SKY/WX    TMP DP  RH WIND       PRES   REMARKS
ST. LOUIS INTL MOCLDY    54  48  80 W7        29.84S
SPIRIT OF STL  CLOUDY    52  49  89 W5        29.84S
COLUMBIA       CLOUDY    49  49 100 W7        29.84R
JEFFERSON CITY CLOUDY    52  48  86 SW6       29.85R
ROLLA          CLOUDY    47  46  97 S10       29.84S
OSAGE BEACH    CLOUDY   N/A N/A N/A SW6       29.87R
SPRINGFIELD    CLOUDY    47  44  90 W7        29.89S
BRANSON        CLOUDY    46  46 100 W3        29.91R
JOPLIN         CLOUDY    47  45  93 W5        29.92R
WEST PLAINS    CLOUDY    48  44  86 W7        29.90R

$$

IAZ060-094-KSZ022-034>040-054-083-096-NEZ052-066-093-261100-
...KANSAS...SOUTHEAST NEBRASKA AND IOWA...

CITY           SKY/WX    TMP DP  RH WIND       PRES   REMARKS
TOPEKA         CLOUDY    44  43  96 NW5       29.89S
MANHATTAN      CLOUDY    43  40  89 CALM      29.91S
EMPORIA        CLOUDY    43  43 100 W3        29.90S FOG
CHANUTE        CLOUDY    46  45  96 CALM      29.91F FOG
WICHITA        CLOUDY    43  42  97 CALM      29.88F
OMAHA          CLOUDY    40  37  89 N6        29.89S FOG
LINCOLN        CLOUDY    40  39  97 N6        29.91S FOG
FALLS CITY     CLOUDY    42  40  92 NW7       29.88S
LAMONI         FOG       42  41  96 NW10      29.84R VSB 1
DES MOINES     CLOUDY    42  41  96 N7        29.84S FOG

$$





USA.gov is the U.S. government's official web portal to all federal, state and local government web resources and services.